FW5669 Weather Reports


Display with metric or nautical units.
time (UTC)temp
F
wind
direction
speed
MPH
gust
MPH
rain 1hr
in
rain 24hr
in
rain mn
in
humidity
%
barometer
mb
20260508101600 56 39 1.0 5.0 0.00 0.00 0.00 93 1017.4
20260508100100 56 26 0.0 0.0 0.00 0.00 0.00 92 1017.4
20260508100003 56 26 0.0 0.0 0.00 0.00 0.00 92 1017.5
20260508094603 56 34 0.0 0.0 0.00 0.00 0.00 93 1017.6
20260508093059 56 35 0.0 1.0 0.00 0.00 0.00 92 1017.7
20260508091559 57 16 0.0 1.0 0.00 0.00 0.00 92 1017.8
20260508090106 57 16 0.0 1.0 0.00 0.00 0.00 92 1017.7
20260508090003 57 16 0.0 1.0 0.00 0.00 0.00 92 1017.7
20260508084600 58 16 0.0 1.0 0.00 0.00 0.00 92 1017.8
20260508083117 58 39 0.0 1.0 0.00 0.00 0.00 92 1017.6
20260508081605 58 39 0.0 2.0 0.00 0.00 0.00 92 1017.6
20260508080001 58 39 0.0 1.0 0.00 0.00 0.00 92 1017.7
20260508074603 58 39 0.0 2.0 0.00 0.00 0.00 91 1017.7
20260508073100 59 39 0.0 1.0 0.00 0.00 0.00 90 1017.7
20260508071601 60 39 0.0 0.0 0.00 0.00 0.00 91 1017.7
20260508070100 61 39 0.0 0.0 0.00 0.00 0.00 90 1017.5
20260508070005 61 39 0.0 0.0 0.00 0.00 0.00 90 1017.5
20260508064502 60 55 0.0 1.0 0.00 0.00 0.00 92 1017.4
20260508063002 60 187 0.0 0.0 0.00 0.00 0.00 91 1017.5
20260508061503 60 187 0.0 0.0 0.00 0.00 0.00 90 1017.6
20260508060002 61 187 0.0 1.0 0.00 0.00 0.00 90 1017.6
20260508054501 61 187 0.0 1.0 0.00 0.00 0.00 90 1017.6
20260508053002 61 187 0.0 0.0 0.00 0.00 0.00 89 1017.8
20260508051503 62 187 0.0 2.0 0.00 0.00 0.00 89 1017.8
20260508050100 62 187 0.0 2.0 0.00 0.00 0.00 89 1017.8
20260508050001 62 187 0.0 2.0 0.00 0.00 0.00 88 1017.7
20260508044612 63 187 0.0 0.0 0.00 0.00 0.00 88 1017.7
20260508043001 63 187 0.0 0.0 0.00 0.00 0.00 87 1017.5
20260508041600 64 187 0.0 1.0 0.00 0.00 0.00 86 1017.4
20260508040101 65 187 0.0 1.0 0.00 0.00 0.00 84 1017.4
20260508040004 65 187 0.0 1.0 0.00 0.00 0.00 84 1017.4
20260508034502 66 187 0.0 0.0 0.00 0.00 0.00 82 1017.2
20260508033001 67 187 0.0 1.0 0.00 0.00 0.00 80 1017.1
20260508031503 69 187 0.0 1.0 0.00 0.00 0.00 76 1017.0
20260508030002 70 187 0.0 0.0 0.00 0.00 0.00 73 1017.0
20260508024501 72 187 0.0 1.0 0.00 0.00 0.00 71 1016.9
20260508023001 74 187 0.0 0.0 0.00 0.00 0.00 68 1016.8
20260508021601 75 187 0.0 1.0 0.00 0.00 0.00 66 1016.7
20260508020108 75 211 0.0 2.0 0.00 0.00 0.00 64 1016.7
20260508020003 75 211 0.0 2.0 0.00 0.00 0.00 63 1016.7
20260508014502 75 170 1.0 2.0 0.00 0.00 0.00 63 1016.8
20260508013001 76 254 0.0 2.0 0.00 0.00 0.00 62 1016.9
20260508011502 76 205 0.0 2.0 0.00 0.00 0.00 62 1016.9
20260508010101 76 273 0.0 2.0 0.00 0.00 0.00 63 1016.9
20260508004611 76 121 0.0 3.0 0.00 0.00 0.00 63 1017.1
20260508003105 76 172 0.0 4.0 0.00 0.00 0.00 62 1017.2
20260508001600 77 139 1.0 4.0 0.00 0.00 0.00 61 1017.2
20260508000002 77 150 1.0 3.0 0.00 0.00 0.00 62 1017.2
20260507234501 77 273 0.0 3.0 0.00 0.00 0.00 62 1017.2
20260507233001 77 234 1.0 3.0 0.00 0.00 0.00 63 1017.3
20260507231501 77 155 2.0 3.0 0.00 0.00 0.00 62 1017.4
20260507230000 78 230 1.0 3.0 0.00 0.00 0.00 62 1017.8
20260507224602 78 226 1.0 4.0 0.00 0.00 0.00 62 1017.8
20260507223102 78 246 1.0 4.0 0.00 0.00 0.00 60 1018.3
20260507221600 78 218 1.0 4.0 0.00 0.00 0.00 61 1018.6
20260507220100 77 224 0.0 3.0 0.00 0.00 0.00 59 1018.6
20260507214619 77 192 0.0 4.0 0.00 0.00 0.00 62 1018.7
20260507213108 77 208 2.0 5.0 0.00 0.00 0.00 63 1019.0
20260507211624 76 137 1.0 4.0 0.00 0.00 0.00 64 1019.2
20260507210002 75 177 2.0 4.0 0.00 0.00 0.00 65 1019.3
20260507204608 75 177 0.0 4.0 0.00 0.00 0.00 65 1019.5
20260507203103 75 212 2.0 4.0 0.00 0.00 0.00 64 1019.7
20260507201608 74 208 1.0 3.0 0.00 0.00 0.00 69 1019.8
20260507200059 73 233 2.0 5.0 0.00 0.00 0.00 68 1019.8
20260507194635 72 142 1.0 4.0 0.00 0.00 0.00 71 1020.0
20260507193101 72 193 1.0 4.0 0.00 0.00 0.00 71 1020.1
20260507191601 72 201 1.0 4.0 0.00 0.00 0.00 71 1020.3
20260507190100 72 149 2.0 6.0 0.00 0.00 0.00 70 1020.2
20260507184607 72 177 1.0 4.0 0.00 0.00 0.00 73 1020.4
20260507183100 71 204 1.0 4.0 0.00 0.00 0.00 74 1020.5
20260507181600 71 145 0.0 4.0 0.00 0.00 0.00 74 1020.4
20260507180106 71 262 1.0 4.0 0.00 0.00 0.00 73 1020.3
20260507180002 71 189 2.0 4.0 0.00 0.00 0.00 73 1020.3
20260507174600 71 228 1.0 4.0 0.00 0.00 0.00 72 1020.3
20260507173100 72 188 0.0 2.0 0.00 0.00 0.00 66 1020.2
20260507171604 71 177 0.0 4.0 0.00 0.00 0.00 65 1020.3
20260507171500 71 177 1.0 4.0 0.00 0.00 0.00 65 1020.3
20260507170109 71 29 1.0 0.0 4.73 0.00 0.00 68 1020.4
20260507164607 70 48 1.0 3.0 0.00 0.00 0.00 68 1020.4
20260507163107 70 47 1.0 3.0 0.00 0.00 0.00 68 1020.5
20260507161600 69 187 1.0 4.0 0.00 0.00 0.00 70 1020.6
20260507160001 69 321 1.0 3.0 0.00 0.00 0.00 71 1020.6
20260507154607 67 66 0.0 3.0 0.00 0.00 0.00 75 1020.6
20260507154502 67 46 0.0 3.0 0.00 0.00 0.00 76 1020.6
20260507153059 66 73 0.0 2.0 0.00 0.00 0.00 77 1020.7
20260507151600 64 57 0.0 2.0 0.00 0.00 0.00 83 1020.6
20260507150100 62 42 0.0 2.0 0.00 0.00 0.00 85 1020.8
20260507150002 62 43 0.0 2.0 0.00 0.00 0.00 85 1020.7
20260507144603 60 19 0.0 1.0 0.00 0.00 0.00 90 1020.7
20260507143111 58 32 0.0 1.0 0.00 0.00 0.00 94 1020.6
20260507141559 55 6 0.0 1.0 0.00 0.00 0.00 96 1020.4
20260507140100 55 30 0.0 1.0 0.00 0.00 0.00 96 1020.3
20260507134600 54 16 0.0 1.0 0.00 0.00 0.00 95 1020.3
20260507133108 54 2 0.0 2.0 0.00 0.00 0.00 95 1020.1
20260507131612 54 41 0.0 2.0 0.00 0.00 0.00 96 1020.2
20260507130059 53 30 0.0 2.0 0.00 0.00 0.00 95 1020.0
20260507124603 53 4 0.0 1.0 0.00 0.00 0.00 96 1020.0
20260507123059 53 54 0.0 2.0 0.00 0.00 0.00 96 1019.9
20260507121559 53 55 0.0 1.0 0.00 0.00 0.00 96 1019.8
20260507120059 52 39 0.0 0.0 0.00 0.00 0.00 95 1020.0
20260507120001 52 39 0.0 0.0 0.00 0.00 0.00 95 1020.0
20260507114607 52 48 0.0 0.0 0.00 0.00 0.00 95 1020.0
20260507114500 52 48 0.0 0.0 0.00 0.00 0.00 95 1020.0
20260507113103 52 41 0.0 0.0 0.00 0.00 0.00 95 1020.0
20260507111602 52 41 0.0 0.0 0.00 0.00 0.00 95 1020.0
20260507111500 52 41 0.0 0.0 0.00 0.00 0.00 95 1020.0
20260507110002 52 41 0.0 1.0 0.00 0.00 0.00 95 1020.0
20260507104600 52 58 0.0 0.0 0.00 0.00 0.00 95 1020.0
20260507103059 52 58 0.0 0.0 0.00 0.00 0.00 95 1019.9